Home > Weather > Lohmar > Past weeks

Flag for Germany Weather for the Past 2 Weeks in Lohmar, North Rhine-Westphalia, Germany

Now
41 °F

Sprinkles. Partly sunny.


Feels Like: 32 °F
Forecast: 37 / 43 °F
Wind: 17 mph from West

Location: Koeln / Bonn

Current Time: Feb 10, 2016 at 3:04:52 PM

Latest Report: Feb 10, 2016 at 2:20 PM


Visibility: N/A

Pressure: 29.36 "Hg

Humidity: 87%

Dew point: 37 °F

Location of LohmarLocation

Historic Weather in Lohmar — Graph

°F

Lohmar Temperature Yesterday

Maximum temperature yesterday: 54 °F (at 3:20 PM)
Minimum temperature yesterday: 37 °F (at 7:20 PM)
Average temperature yesterday: 44 °F

High & Low Weather Summary for the Past Weeks

 TemperatureHumidityPressure
High55 °F (Jan 26, 1:20 PM)100% (Jan 30, 6:20 PM)30.33 "Hg (Jan 30, 6:20 PM)
Low32 °F (Jan 29, 3:20 AM)50% (Feb 8, 3:50 PM)28.88 "Hg (Feb 9, 3:20 PM)
Average46 °F80%29.91 "Hg
* Reported Jan 26 1:20 PM — Feb 10 1:50 PM, Lohmar, Weather by CustomWeather, © 2016

Note: Actual official high and low records may vary slightly from our data, if they occured in-between our weather recording intervals... More about our weather records

Advertising

Lohmar Weather History for the Previous 24 Hours

 ConditionsComfort  
Time TempWeatherWind HumidityBarometerVisibility
1:50 PM
Wed, Feb 10
41 °FLight rain. Partly sunny.13 mph87%29.36 "HgN/A
1:20 PM41 °FLight rain. Partly sunny.14 mph87%29.36 "HgN/A
12:50 PM39 °FLight rain. Broken clouds.13 mph93%29.36 "HgN/A
12:20 PM37 °FLight rain. Broken clouds.9 mph93%29.36 "HgN/A
11:50 AM39 °FLight rain. Broken clouds.14 mph87%29.36 "HgN/A
11:20 AM39 °FLight rain. Broken clouds.10 mph87%29.36 "HgN/A
10:50 AM39 °FLight rain. Mostly cloudy.16 mph87%29.33 "HgN/A
10:20 AM39 °FLight rain. Broken clouds.10 mph87%29.33 "HgN/A
9:50 AM39 °FLight rain. Broken clouds.10 mph87%29.33 "HgN/A
9:20 AM39 °FLight rain. Partly sunny.9 mph87%29.30 "HgN/A
8:50 AM39 °FLight rain. Broken clouds.10 mph87%29.30 "HgN/A
8:20 AM39 °FLight rain. Broken clouds.10 mph81%29.30 "HgN/A
7:50 AM39 °FSprinkles. Partly cloudy.12 mph81%29.30 "HgN/A
7:20 AM39 °FSprinkles. Partly cloudy.13 mph81%29.30 "HgN/A
6:50 AM39 °FSprinkles. Partly cloudy.13 mph81%29.27 "HgN/A
6:20 AM39 °FSprinkles. Partly cloudy.10 mph81%29.27 "HgN/A
5:50 AM39 °FSprinkles. Passing clouds.10 mph81%29.27 "HgN/A
5:20 AM39 °FSprinkles. Passing clouds.10 mph81%29.30 "HgN/A
4:50 AM39 °FPassing clouds.10 mph81%29.30 "HgN/A
4:20 AM39 °FPassing clouds.9 mph81%29.30 "HgN/A
3:50 AM39 °FPassing clouds.10 mph81%29.30 "HgN/A
3:20 AM37 °FPartly cloudy.8 mph87%29.30 "HgN/A
2:20 AM37 °FPartly cloudy.9 mph87%29.30 "HgN/A
1:20 AM37 °FPassing clouds.8 mph87%29.30 "HgN/A
12:20 AM39 °FPassing clouds.8 mph81%29.30 "HgN/A
11:50 PM
Tue, Feb 9
39 °FPassing clouds.12 mph87%29.27 "HgN/A
11:20 PM39 °FPassing clouds.13 mph87%29.27 "HgN/A
10:20 PM39 °FPassing clouds.16 mph87%29.21 "HgN/A
9:50 PM39 °FPassing clouds.9 mph93%29.21 "HgN/A
9:20 PM39 °FLight rain. Passing clouds.10 mph93%29.18 "HgN/A
8:50 PM37 °FLight rain. Passing clouds.18 mph100%29.15 "HgN/A
8:20 PM37 °FLight rain. Low clouds.12 mph93%29.15 "HgN/A
7:50 PM37 °FLight rain. Low clouds.23 mph93%29.09 "HgN/A
7:20 PM37 °FLight rain. Low clouds.13 mph100%29.06 "HgN/A
6:50 PM39 °FLight rain. Passing clouds.18 mph87%29.03 "HgN/A
6:20 PM41 °FPassing clouds.16 mph87%28.97 "HgN/A
5:50 PM48 °FSprinkles. Passing clouds.17 mph76%28.91 "HgN/A
4:20 PM48 °FScattered showers. Partly sunny.21 mph76%28.91 "HgN/A
3:50 PM52 °FRain showers. Partly sunny.25 mph72%28.91 "Hg6 mi
3:20 PM54 °FPartly sunny.20 mph67%28.88 "HgN/A
Weather by CustomWeather, © 2016

See weather overviewHow to use our weather pages